GW4151 Weather Reports


time (UTC)temp
F
wind
direction
speed
knots
gust
knots
rain 1hr
in
rain 24hr
in
rain mn
in
humidity
%
barometer
mb
20260507222725 53 203 0.9 3.5 0.00 0.00 0.00 46 991.1
20260507221220 53 259 1.7 5.2 0.00 0.00 0.00 44 991.2
20260507215716 54 298 1.7 5.2 0.00 0.00 0.00 43 991.2
20260507214214 53 285 1.7 7.0 0.00 0.00 0.00 44 991.2
20260507212709 55 153 4.3 7.0 0.00 0.00 0.00 42 991.3
20260507211209 54 230 4.3 7.8 0.00 0.00 0.00 42 991.3
20260507205706 56 149 2.6 5.2 0.00 0.00 0.00 43 991.5
20260507204203 55 230 1.7 2.6 0.00 0.00 0.00 45 991.7
20260507202659 53 226 2.6 6.1 0.00 0.00 0.00 43 992.1
20260507201159 53 267 5.2 7.0 0.00 0.00 0.00 43 992.4
20260507195654 53 275 2.6 5.2 0.00 0.00 0.00 46 992.8
20260507194150 51 294 3.5 7.0 0.00 0.00 0.00 45 992.8
20260507192646 52 209 3.5 7.8 0.00 0.00 0.00 46 993.0
20260507191142 51 246 1.7 6.1 0.00 0.00 0.00 47 993.1
20260507185641 51 234 5.2 7.0 0.00 0.00 0.00 47 993.0
20260507184139 50 270 7.8 8.7 0.00 0.00 0.00 46 993.2
20260507182635 51 173 4.3 6.1 0.00 0.00 0.00 47 993.4
20260507181130 51 262 3.5 7.0 0.00 0.00 0.00 43 993.3
20260507175625 51 275 7.0 7.8 0.00 0.00 0.00 43 993.2
20260507174124 50 285 4.3 7.8 0.00 0.00 0.00 46 993.4
20260507172619 49 276 3.5 3.5 0.00 0.00 0.00 46 993.3
20260507171115 49 235 7.0 8.7 0.00 0.00 0.00 45 993.7
20260507165610 48 274 6.1 9.6 0.00 0.00 0.00 47 994.1
20260507164106 49 227 5.2 7.8 0.00 0.00 0.00 47 994.3
20260507162601 47 260 6.1 7.8 0.00 0.00 0.00 49 994.4
20260507161057 48 240 4.3 12.2 0.00 0.00 0.00 48 994.6
20260507155557 49 280 7.8 11.3 0.00 0.00 0.00 49 994.8
20260507154054 47 309 6.1 9.6 0.00 0.00 0.00 52 994.9
20260507152549 48 300 6.1 8.7 0.00 0.00 0.00 52 994.6
20260507151045 47 215 5.2 11.3 0.00 0.00 0.00 55 994.6
20260507145545 47 239 5.2 8.7 0.00 0.00 0.00 56 994.2
20260507144044 47 256 3.5 7.8 0.00 0.00 0.00 56 994.6
20260507142538 46 310 7.0 12.2 0.00 0.00 0.00 59 994.6
20260507141034 47 307 7.0 12.2 0.00 0.00 0.00 58 994.6
20260507135531 47 247 3.5 7.8 0.00 0.00 0.00 57 994.7
20260507134026 46 240 4.3 7.8 0.00 0.00 0.00 52 994.4
20260507132522 46 274 3.5 9.6 0.00 0.00 0.00 56 994.5
20260507131019 45 220 3.5 7.8 0.00 0.00 0.00 60 994.2
20260507125518 45 266 6.1 7.0 0.00 0.00 0.00 63 994.1
20260507124015 44 237 2.6 6.1 0.00 0.00 0.00 66 994.1
20260507122510 44 248 3.5 5.2 0.00 0.00 0.00 68 993.9
20260507121009 43 265 2.6 5.2 0.00 0.00 0.00 71 994.0
20260507115505 42 246 3.5 5.2 0.00 0.00 0.00 74 993.9
20260507114000 42 266 3.5 3.5 0.00 0.00 0.00 75 993.7
20260507112458 41 190 0.9 1.7 0.00 0.00 0.00 78 993.7
20260507110953 39 232 0.9 2.6 0.00 0.00 0.00 80 993.5
20260507105449 38 239 0.9 1.7 0.00 0.00 0.00 81 993.4
20260507103949 38 219 0.9 1.7 0.00 0.00 0.00 80 993.2
20260507102445 38 230 0.0 3.5 0.00 0.00 0.00 79 993.2
20260507100946 39 250 0.9 2.6 0.00 0.00 0.00 79 993.1
20260507095445 39 254 2.6 2.6 0.00 0.00 0.00 79 993.1
20260507093940 39 278 0.0 1.7 0.00 0.00 0.00 79 992.9
20260507092438 39 257 0.0 1.7 0.00 0.00 0.00 79 993.1
20260507090933 39 259 1.7 1.7 0.00 0.00 0.00 78 993.1
20260507085429 40 247 1.7 3.5 0.00 0.00 0.00 77 993.3
20260507083926 41 254 1.7 3.5 0.00 0.00 0.00 75 993.5
20260507082426 41 199 1.7 3.5 0.00 0.00 0.00 74 993.3
20260507080923 41 265 1.7 2.6 0.00 0.00 0.00 73 993.3
20260507075422 42 244 1.7 3.5 0.00 0.00 0.00 73 993.3
20260507073919 42 255 1.7 2.6 0.00 0.00 0.00 73 993.5
20260507072416 42 237 0.9 1.7 0.00 0.00 0.00 71 993.4
20260507070912 42 291 2.6 3.5 0.00 0.00 0.00 69 993.6
20260507065409 42 296 1.7 5.2 0.00 0.00 0.00 68 993.5
20260507063908 43 290 2.6 5.2 0.00 0.00 0.00 66 993.6
20260507062404 43 290 3.5 3.5 0.00 0.00 0.00 64 993.8
20260507060904 44 327 3.5 6.1 0.00 0.00 0.00 63 993.5
20260507055404 45 264 4.3 7.0 0.00 0.00 0.00 61 993.6
20260507053901 45 275 6.1 8.7 0.00 0.00 0.00 63 993.5
20260507052359 45 11 4.3 7.0 0.00 0.00 0.00 68 993.7
20260507050857 45 276 1.7 2.6 0.00 0.00 0.00 68 993.6
20260507045352 45 250 1.7 2.6 0.00 0.00 0.00 66 993.5
20260507043848 45 206 0.0 1.7 0.00 0.00 0.00 65 993.5
20260507042343 45 203 0.0 0.9 0.00 0.00 0.00 64 993.6
20260507040840 45 215 0.9 0.9 0.00 0.00 0.00 62 993.6
20260507035339 46 204 0.0 1.7 0.00 0.00 0.00 59 993.5
20260507033837 46 209 0.0 1.7 0.00 0.00 0.00 60 993.5
20260507032333 45 180 0.0 0.0 0.00 0.00 0.00 62 993.6
20260507030828 46 190 0.0 0.9 0.00 0.00 0.00 58 993.6
20260507025326 47 250 1.7 2.6 0.00 0.00 0.00 55 993.7
20260507023822 48 256 0.9 1.7 0.00 0.00 0.00 54 993.7
20260507022318 48 229 1.7 3.5 0.00 0.00 0.00 53 993.6
20260507020814 48 188 1.7 1.7 0.00 0.00 0.00 51 993.3
20260507015310 49 253 1.7 2.6 0.00 0.00 0.00 50 993.3
20260507013806 49 232 2.6 3.5 0.00 0.00 0.00 47 993.2
20260507012305 49 242 1.7 2.6 0.00 0.00 0.00 47 993.1
20260507010801 49 223 0.9 2.6 0.00 0.00 0.00 46 993.1
20260507005257 50 243 1.7 3.5 0.00 0.00 0.00 46 993.2
20260507003754 50 219 1.7 2.6 0.00 0.00 0.00 45 992.9
20260507002253 50 203 1.7 2.6 0.00 0.00 0.00 45 993.0
20260507000750 50 202 1.7 2.6 0.00 0.00 0.00 44 992.8
20260506235249 50 231 0.9 5.2 0.00 0.00 0.00 44 992.7
20260506233748 51 273 2.6 2.6 0.00 0.00 0.00 44 992.8
20260506232247 51 269 0.9 5.2 0.00 0.00 0.00 43 992.9
20260506230745 51 333 3.5 5.2 0.00 0.00 0.00 42 992.9
20260506225242 51 307 3.5 6.1 0.00 0.00 0.00 41 992.9
20260506223738 53 261 5.2 8.7 0.00 0.00 0.00 41 992.8